Location: Dead Woman Crossing
(43.5369°N, 106.3228°W)
Time: 07:48:52
(UTC+00:00)

NANOSAT C BR1 - Pass Details

Date: 28 June 2022
Orbit: 584 x 599 km, 98.0° (Epoch: 09 August)

Event Time Altitude Azimuth Distance (km) Brightness Sun altitude
Rises 10:23:42 0° 357° (N) 2,845 ? -9.6°
Reaches altitude 10° 10:26:25 10° 339° (NNW) 1,941 ? -9.3°
Maximum altitude 10:29:17 18° 296° (WNW) 1,479 ? -8.9°
Drops below altitude 10° 10:32:09 10° 252° (WSW) 1,937 ? -8.5°
Enters shadow 10:32:28 - 249° (WSW) 2,028 ? -8.5°
